Tracking 23762 objects as of 19-Oct-2021
HD Live streaming from Space Station
objects crossing your sky now

RADUGA 17

Track RADUGA 17 now!
RADUGA 17 is classified as:


NORAD ID: 16250
Int'l Code: 1985-107A
Perigee: 35,777.5 km
Apogee: 35,888.4 km
Inclination: 12.5 °
Period: 1,438.1 minutes
Semi major axis: 42203 km
RCS: 3.981 m2 (large)
Launch date: November 15, 1985
Source: Commonwealth of Independent States (former USSR) (CIS)
Launch site: TYURATAM MISSILE AND SPACE COMPLEX (TTMTR)
aabbcc
Your satellite tracking list
Your tracking list is empty




NASA's NSSDC Master Catalog

Two Line Element Set (TLE):
1 16250U 85107A   21290.96620108  .00000093  00000-0  00000-0 0  9993
2 16250  12.4676 331.2025 0013141 173.6932 279.6674  1.00132027134611
Source of the keplerian elements: AFSPC